• In Uzbekistan
  • List of Countries
  • For 7 days
  • Water Temperature
  • Satellite Maps
  • Weather Map
  • Weather Widgets
  • user-avatar
    Login

    Hourly Weather Stepanakert

    Today, 21 August, Monday

    Time Temperature Precipitation Wind Pressure Humidity
    00:00 +23°C° 0 mm 2 mps 693 mmHg 52%
    01:00 +21°C° 0 mm 2 mps 693 mmHg 52%
    02:00 +21°C° 0 mm 2 mps 693 mmHg 52%
    03:00 +21°C° 0 mm 2 mps 693 mmHg 52%
    04:00 +21°C° 0 mm 2 mps 693 mmHg 51%
    05:00 +21°C° 0 mm 2 mps 693 mmHg 51%
    06:00 +21°C° 0 mm 2 mps 693 mmHg 51%
    07:00 +24°C° 0 mm 2 mps 693 mmHg 47%
    08:00 +26°C° 0 mm 2 mps 693 mmHg 42%
    09:00 +28°C° 0 mm 2 mps 693 mmHg 38%
    10:00 +30°C° 0 mm 2 mps 693 mmHg 35%
    11:00 +31°C° 0 mm 3 mps 693 mmHg 32%
    12:00 +33°C° 0 mm 3 mps 693 mmHg 29%
    13:00 +34°C° 0 mm 3 mps 692 mmHg 28%
    14:00 +34°C° 0 mm 3 mps 692 mmHg 28%
    15:00 +34°C° 0 mm 3 mps 692 mmHg 27%
    16:00 +34°C° 0 mm 3 mps 691 mmHg 30%
    17:00 +32°C° 0 mm 2 mps 691 mmHg 33%
    18:00 +31°C° 0 mm 2 mps 691 mmHg 35%
    19:00 +29°C° 0 mm 2 mps 691 mmHg 39%
    20:00 +27°C° 0 mm 2 mps 691 mmHg 43%
    21:00 +25°C° 0 mm 2 mps 691 mmHg 47%
    22:00 +25°C° 0 mm 2 mps 691 mmHg 49%
    23:00 +24°C° 0 mm 2 mps 691 mmHg 50%

    Tomorrow, 22 August, Tuesday

    Time Temperature Precipitation Wind Pressure Humidity
    00:00 +23°C° 0 mm 2 mps 691 mmHg 52%
    01:00 +23°C° 0 mm 2 mps 691 mmHg 52%
    02:00 +23°C° 0 mm 2 mps 691 mmHg 52%
    03:00 +22°C° 0 mm 1 mps 691 mmHg 52%
    04:00 +23°C° 0 mm 1 mps 691 mmHg 51%
    05:00 +23°C° 0 mm 1 mps 691 mmHg 50%
    06:00 +23°C° 0 mm 1 mps 691 mmHg 49%
    07:00 +25°C° 0 mm 2 mps 691 mmHg 43%
    08:00 +27°C° 0 mm 2 mps 692 mmHg 37%
    09:00 +29°C° 0 mm 2 mps 692 mmHg 30%
    10:00 +31°C° 0 mm 2 mps 692 mmHg 28%
    11:00 +33°C° 0 mm 3 mps 692 mmHg 26%
    12:00 +34°C° 0 mm 3 mps 691 mmHg 23%
    13:00 +35°C° 0 mm 3 mps 691 mmHg 23%
    14:00 +35°C° 0 mm 3 mps 691 mmHg 23%
    15:00 +35°C° 0 mm 3 mps 690 mmHg 23%
    16:00 +34°C° 0 mm 3 mps 690 mmHg 25%
    17:00 +33°C° 0 mm 3 mps 690 mmHg 28%
    18:00 +31°C° 0 mm 2 mps 689 mmHg 31%
    19:00 +29°C° 0 mm 2 mps 690 mmHg 34%
    20:00 +27°C° 0 mm 2 mps 690 mmHg 38%
    21:00 +25°C° 0 mm 2 mps 690 mmHg 42%
    22:00 +25°C° 0 mm 2 mps 690 mmHg 44%
    23:00 +24°C° 0 mm 2 mps 690 mmHg 45%

    Day after tomorrow, 23 August, Wednesday

    Time Temperature Precipitation Wind Pressure Humidity
    00:00 +24°C° 0 mm 2 mps 690 mmHg 47%
    01:00 +23°C° 0 mm 2 mps 690 mmHg 47%
    02:00 +23°C° 0 mm 2 mps 690 mmHg 48%
    03:00 +23°C° 0 mm 1 mps 690 mmHg 48%
    04:00 +23°C° 0 mm 1 mps 690 mmHg 48%
    05:00 +23°C° 0 mm 1 mps 690 mmHg 48%
    06:00 +23°C° 0 mm 1 mps 691 mmHg 48%
    07:00 +25°C° 0 mm 2 mps 691 mmHg 42%
    08:00 +27°C° 0 mm 2 mps 692 mmHg 36%
    09:00 +29°C° 0 mm 2 mps 692 mmHg 30%
    10:00 +31°C° 0 mm 3 mps 692 mmHg 28%
    11:00 +33°C° 0 mm 3 mps 692 mmHg 26%
    12:00 +34°C° 0 mm 3 mps 692 mmHg 23%
    13:00 +35°C° 0 mm 3 mps 692 mmHg 23%
    14:00 +35°C° 0 mm 3 mps 691 mmHg 22%
    15:00 +36°C° 0 mm 4 mps 691 mmHg 22%
    16:00 +34°C° 0 mm 4 mps 691 mmHg 25%
    17:00 +33°C° 0 mm 4 mps 691 mmHg 28%
    18:00 +32°C° 0 mm 4 mps 691 mmHg 30%
    19:00 +29°C° 0 mm 3 mps 691 mmHg 35%
    20:00 +27°C° 0 mm 2 mps 692 mmHg 40%
    21:00 +25°C° 0 mm 1 mps 692 mmHg 45%
    22:00 +24°C° 0 mm 1 mps 692 mmHg 46%
    23:00 +24°C° 0 mm 1 mps 692 mmHg 47%

    24 August, Thursday

    Time Temperature Precipitation Wind Pressure Humidity
    00:00 +23°C° 0 mm 1 mps 692 mmHg 48%
    01:00 +23°C° 0 mm 1 mps 692 mmHg 49%
    02:00 +23°C° 0 mm 1 mps 693 mmHg 50%
    03:00 +23°C° 0 mm 1 mps 693 mmHg 51%
    04:00 +23°C° 0 mm 1 mps 693 mmHg 52%
    05:00 +23°C° 0 mm 1 mps 693 mmHg 52%
    06:00 +23°C° 0 mm 1 mps 694 mmHg 53%
    07:00 +25°C° 0 mm 2 mps 694 mmHg 45%
    08:00 +27°C° 0 mm 2 mps 695 mmHg 37%
    09:00 +29°C° 0 mm 2 mps 695 mmHg 29%
    10:00 +30°C° 0 mm 3 mps 695 mmHg 27%
    11:00 +33°C° 0 mm 3 mps 695 mmHg 25%
    12:00 +34°C° 0 mm 4 mps 695 mmHg 22%
    13:00 +34°C° 0 mm 4 mps 695 mmHg 22%
    14:00 +35°C° 0 mm 4 mps 694 mmHg 22%
    15:00 +35°C° 0 mm 5 mps 694 mmHg 21%
    16:00 +34°C° 0 mm 4 mps 694 mmHg 23%
    17:00 +32°C° 0 mm 4 mps 694 mmHg 25%
    18:00 +30°C° 0 mm 4 mps 694 mmHg 27%
    19:00 +28°C° 0 mm 3 mps 694 mmHg 30%
    20:00 +26°C° 0 mm 2 mps 694 mmHg 33%
    21:00 +24°C° 0 mm 2 mps 695 mmHg 35%
    22:00 +23°C° 0 mm 2 mps 695 mmHg 36%
    23:00 +23°C° 0 mm 2 mps 695 mmHg 37%

    25 August, Friday

    Time Temperature Precipitation Wind Pressure Humidity
    00:00 +21°C° 0 mm 2 mps 695 mmHg 38%
    01:00 +21°C° 0 mm 2 mps 695 mmHg 39%
    02:00 +21°C° 0 mm 2 mps 695 mmHg 39%
    03:00 +21°C° 0 mm 1 mps 695 mmHg 39%
    04:00 +22°C° 0 mm 1 mps 695 mmHg 38%
    05:00 +22°C° 0 mm 1 mps 695 mmHg 37%
    06:00 +22°C° 0 mm 1 mps 695 mmHg 37%
    07:00 +24°C° 0 mm 2 mps 696 mmHg 31%
    08:00 +27°C° 0 mm 2 mps 696 mmHg 26%
    09:00 +29°C° 0 mm 2 mps 696 mmHg 21%
    10:00 +30°C° 0 mm 2 mps 696 mmHg 19%
    11:00 +31°C° 0 mm 3 mps 696 mmHg 17%
    12:00 +34°C° 0 mm 3 mps 696 mmHg 16%
    13:00 +34°C° 0 mm 3 mps 695 mmHg 16%
    14:00 +34°C° 0 mm 4 mps 695 mmHg 16%
    15:00 +35°C° 0 mm 4 mps 695 mmHg 16%
    16:00 +33°C° 0 mm 3 mps 694 mmHg 18%
    17:00 +31°C° 0 mm 3 mps 694 mmHg 20%
    18:00 +30°C° 0 mm 2 mps 694 mmHg 22%
    19:00 +28°C° 0 mm 2 mps 694 mmHg 26%
    20:00 +26°C° 0 mm 2 mps 694 mmHg 30%
    21:00 +24°C° 0 mm 2 mps 695 mmHg 34%
    22:00 +24°C° 0 mm 2 mps 694 mmHg 35%
    23:00 +23°C° 0 mm 2 mps 694 mmHg 37%

    26 August, Saturday

    Time Temperature Precipitation Wind Pressure Humidity
    00:00 +21°C° 0 mm 2 mps 694 mmHg 38%
    01:00 +21°C° 0 mm 2 mps 694 mmHg 38%
    02:00 +21°C° 0 mm 2 mps 694 mmHg 39%
    03:00 +20°C° 0 mm 2 mps 694 mmHg 39%
    04:00 +20°C° 0 mm 2 mps 694 mmHg 38%
    05:00 +20°C° 0 mm 2 mps 695 mmHg 37%
    06:00 +20°C° 0 mm 2 mps 695 mmHg 35%
    07:00 +24°C° 0 mm 2 mps 695 mmHg 31%
    08:00 +26°C° 0 mm 2 mps 695 mmHg 26%
    09:00 +29°C° 0 mm 2 mps 696 mmHg 21%
    10:00 +30°C° 0 mm 2 mps 695 mmHg 20%
    11:00 +31°C° 0 mm 3 mps 695 mmHg 18%
    12:00 +33°C° 0 mm 4 mps 695 mmHg 16%
    13:00 +33°C° 0 mm 4 mps 694 mmHg 16%
    14:00 +34°C° 0 mm 4 mps 694 mmHg 16%
    15:00 +34°C° 0 mm 4 mps 694 mmHg 16%
    16:00 +33°C° 0 mm 4 mps 694 mmHg 19%
    17:00 +30°C° 0 mm 3 mps 693 mmHg 21%
    18:00 +29°C° 0 mm 3 mps 693 mmHg 23%
    19:00 +27°C° 0 mm 3 mps 693 mmHg 26%
    20:00 +25°C° 0 mm 3 mps 694 mmHg 30%
    21:00 +23°C° 0 mm 2 mps 694 mmHg 33%
    22:00 +23°C° 0 mm 2 mps 694 mmHg 34%
    23:00 +21°C° 0 mm 2 mps 694 mmHg 36%
    Show more